Погода в Бородулихе

Казахстан     50°42′48″N   80°56′10″E
темп.,
°C
ветер,
м/с
пор.,
м/с
влажн.,
%
обл.,
%
осадки,
мм/ч
давл.,
гПа
погр.,
м
2 марта, вт
вт200:00−1ююз81494100 3.4 1017640
03:00−2юз71295100 0.4 1017456
06:00−2зюз3597100 1.1 1019234
09:00−4юз3594100 0.2 1019243
12:00−2юз3594100 0.3 1019390
15:00−1ююз3698100 0.2 1017449
18:00−1ююз1299100 1.9 1015111
21:00−3ссз1398100 2.8 101599
3 марта, ср
ср300:00−6ссз3696100 4.3 1016189
03:00−9з2396100 0.2 101848
06:00−11юз349698 0.3 102061
09:00−9зюз4794100 0.3 1022330
12:00−10зюз5789100 0.4 1023582
15:00−9юз5787100 0.1 1024730
18:00−12ююз3492100 0.1 102579
21:00−14ю479026 0.0 1027100
4 марта, чт
чт400:00−14ю6109013 0.0 1028193
03:00−15ю6128619 0.0 1027200
06:00−14ю7128256 0.0 1028239
09:00−12ю8137991 0.0 1027303
12:00−9ю8137995 0.0 1027366
15:00−6ю8138250 0.0 1025447
18:00−7ю8158133 0.0 1025370
21:00−9ю8167872 0.0 1024299
5 марта, пт
пт500:00−9ю9167661 0.0 1023327
03:00−9ююв8188085 0.0 1020429
06:00−7ю8169493 1.6 1019609
09:00−6ююз71294100 2.1 1018509
12:00−4ююз71195100 3.4 1020545
15:00−2з7108595 0.3 1025937
18:00−5юз488995 0.4 1029233
21:00−9ю5109011 0.0 1031152
6 марта, сб
сб600:00−8ю713846 0.0 1031273
03:00−10ю7148467 0.0 1030295
06:00−11ю7148074 0.0 1029282
09:00−9ю814809 0.0 1028399
12:00−4ю813847 0.0 1026605
15:00−2ююз913878 0.0 1024751
18:00−4ю7138520 0.0 1024374
21:00−7ю611860 0.0 1025210